Content
SEND FEEDBACK

Daily
Averages
Monthly
Summary
Brazil

SALVADOR, BAHIA


Home > South America > Brazil > Bahia
Elevation: 20 feet     Latitude: 12 54S     Longitude: 038 20W

WEATHER
 
SELECT A DAY
Number of Records: 195,112;   Date Range: 6/30/96 - 12/18/14
 
SHARE

PRINT THIS DATA

[ ← Previous Day ]
WEATHER ALMANAC - FEBRUARY 13, 2013
[ Next Day → ]
[ °C ]   °F
Weather ElementAverageHighLow
Temperature83.3 °F87.8 °F (11:00 am)80 °F (3:00 am)
Dewpoint68.2 °F71.6 °F (4:00 pm)66 °F (3:00 am)
Humidity58.5 %70 % (1:00 am)43 % (3:00 pm)
Barometer29.91 in29.96 in (9:00 am)29.86 in (2:00 am)
Wind Speed9.4 mph13.8 mph (9:00 pm)
Weather ElementAverage
Visibility7.5 mi
Wind DirectionESE (114.2 °)

Weather ElementTotal
Precipitation---
Cooling Degree Days18.9 (Base 65)
Growing Degree Days33.9 (Base 50)
Averaged from 31 records on February 13, 2013
WEATHER CONDITIONS BREAKOUT
WIND DIRECTION BREAKOUT
WEATHER BY HOUR - FEBRUARY 13, 2013
[ °C ]   °F
Local TimeTemperatureDewpointHumidityBarometerVisibilityWind DirectionWind SpeedGust SpeedPrecipitationEventsConditions
12:00 AM80.6 °F68.0 °F65 %29.89 in6.2 miESE (110°)9.2 mphScattered Clouds
1:00 AM80.6 °F69.8 °F70 %29.89 in6.2 miEast (100°)8.1 mphScattered Clouds
2:00 AM80.6 °F68.0 °F65 %29.86 in6.2 miESE (120°)8.1 mphScattered Clouds
3:00 AM80.0 °F66.0 °F54 %29.88 in12.0 miESE (120°)5.8 mphPartly Cloudy
3:00 AM80.6 °F66.2 °F61 %29.86 in6.2 miESE (120°)5.8 mphScattered Clouds
4:00 AM80.6 °F68.0 °F65 %29.89 in6.2 miESE (110°)5.8 mphScattered Clouds
5:00 AM80.6 °F66.2 °F61 %29.89 in6.2 miESE (110°)6.9 mphScattered Clouds
6:00 AM80.6 °F66.2 °F61 %29.92 in6.2 miEast (100°)5.8 mphScattered Clouds
6:00 AM80.0 °F66.0 °F53 %29.92 in12.0 miEast (100°)5.8 mphPartly Cloudy
7:00 AM82.4 °F66.2 °F58 %29.92 in6.2 miENE (70°)9.2 mphScattered Clouds
8:00 AM84.2 °F66.2 °F55 %29.95 in6.2 miEast (100°)6.9 mphPartly Cloudy
9:00 AM85.0 °F66.0 °F44 %29.96 in12.0 miESE (110°)6.9 mphScattered Clouds
9:00 AM86.0 °F66.2 °F51 %29.95 in6.2 miESE (110°)6.9 mphPartly Cloudy
10:00 AM86.0 °F68.0 °F55 %29.95 in6.2 miSE (140°)8.1 mphPartly Cloudy
11:00 AM87.8 °F68.0 °F52 %29.95 in6.2 miSE (140°)8.1 mphPartly Cloudy
12:00 PM87.8 °F68.0 °F52 %29.95 in6.2 miSSE (160°)9.2 mphPartly Cloudy
12:00 PM87.0 °F68.0 °F44 %29.95 in12.0 miSSE (160°)9.2 mphScattered Clouds
1:00 PM86.0 °F68.0 °F55 %29.92 in6.2 miSE (140°)11.5 mphPartly Cloudy
2:00 PM86.0 °F68.0 °F55 %29.92 in6.2 miESE (120°)12.7 mphScattered Clouds
3:00 PM87.0 °F67.0 °F43 %29.90 in12.0 miSE (130°)11.5 mphPartly Cloudy
3:00 PM86.0 °F68.0 °F55 %29.89 in6.2 miSE (130°)11.5 mphScattered Clouds
4:00 PM84.2 °F71.6 °F66 %29.89 in6.2 miEast (100°)12.7 mphScattered Clouds
5:00 PM84.2 °F71.6 °F66 %29.89 in6.2 miESE (110°)10.4 mphScattered Clouds
6:00 PM82.4 °F69.8 °F66 %29.89 in6.2 miEast (100°)11.5 mphPartly Cloudy
6:00 PM83.0 °F69.0 °F54 %29.89 in12.0 miEast (100°)11.5 mphScattered Clouds
7:00 PM82.4 °F68.0 °F62 %29.89 in6.2 miESE (120°)10.4 mphPartly Cloudy
8:00 PM82.4 °F69.8 °F66 %29.92 in6.2 miEast (100°)12.7 mphPartly Cloudy
9:00 PM82.0 °F70.0 °F59 %29.94 in12.0 miEast (100°)13.8 mphScattered Clouds
9:00 PM82.4 °F69.8 °F66 %29.92 in6.2 miEast (100°)13.8 mphPartly Cloudy
10:00 PM82.4 °F69.8 °F66 %29.95 in6.2 miESE (110°)11.5 mphScattered Clouds
11:00 PM82.4 °F71.6 °F70 %29.95 in6.2 miEast (100°)10.4 mphScattered Clouds
Hourly data recorded from SBSV, located miles away from Salvador, Bahia







STORIES FROM OUR PARTNERS